Regional Weather Roundup
Issued by NWS

Home | Current Version | Previous Version | Graphics & Text | Print | Product List | Glossary On
Versions: 1 2 3 4 5 6 7 8 9 10 11 12 13 14 15 16 17 18 19 20 21 22 23 24 25 26 27 28 29 30 31 32 33 34 35 36 37 38 39 40 41 42 43 44 45 46 47 48 49 50
000
ASUS43 KLOT 230906
RWRIL

ILLINOIS REGIONAL WEATHER ROUNDUP
NATIONAL WEATHER SERVICE CHICAGO/ROMEOVILLE IL
400 AM CDT TUE SEP 23 2014

NOTE: "FAIR" INDICATES FEW OR NO CLOUDS BELOW 12,000 FEET WITH NO
SIGNIFICANT WEATHER AND/OR OBSTRUCTIONS TO VISIBILITY.

* THESE STATIONS ARE NOT UNDER NWS QUALITY CONTROL. THEY ALSO MAY NOT
  REPORT WEATHER SUCH AS PRECIPITATION OR FOG.

ILZ001-002-007-009-015-016-024-231000-
NORTHWEST ILLINOIS

CITY           SKY/WX    TMP DP  RH WIND       PRES   REMARKS
MOLINE         CLEAR     45  42  89 CALM      30.27R
STERLING*      CLEAR     45  39  81 CALM      30.28S
SAVANNA*         N/A     46  44  95 CALM      30.27S FOG
$$

ILZ003-004-008-010-011-017-018-231000-
NORTH CENTRAL ILLINOIS

CITY           SKY/WX    TMP DP  RH WIND       PRES   REMARKS
ROCKFORD       CLEAR     46  43  89 CALM      30.30R
FREEPORT*      CLEAR     43  41  93 CALM      30.29S
ROCHELLE*      CLEAR     42  40  94 CALM      30.29S
DE KALB*       CLEAR     42  41  94 S5        30.29S
PERU*          CLEAR     49  47  91 SE6       30.30S
$$

ILZ005-006-012>014-019>023-231000-
NORTHEAST ILLINOIS

CITY           SKY/WX    TMP DP  RH WIND       PRES   REMARKS
CHICAGO-OHARE  CLEAR     52  43  71 SW3       30.28R
CHICAGO-MIDWAY CLEAR     53  43  68 SW6       30.29R
AURORA         CLEAR     44  41  89 CALM      30.30R
LANSING*       CLEAR     46  44  94 CALM      30.29R
JOLIET*        CLEAR     43  42  95 CALM      30.31R
WAUKEGAN       CLEAR     50  46  86 SW5       30.26S
DUPAGE AIRPORT CLEAR     49  44  83 S5        30.28S
KANKAKEE*      CLEAR     44  43  96 CALM      30.30S
WHEELING       CLEAR     50  44  80 CALM      30.30R
MORRIS*        CLEAR     47  46  99 CALM      30.29R
ROMEOVILLE*    CLEAR     45  43  93 S3        30.30R
NORTHERLY ISL    N/A     55  41  59 SW7         N/A
$$

LMZ740>746-231000-
SOUTHERN LAKE MICHIGAN

STATION/POSITION SKY/WX   TEMP    WIND        PRES    VSBY  WAVE
                          AIR SEA DIR/SP/G                  HT/PER
                          (F)     (DEG/KT/KT) (MB)    (MI)  (FT/S)
SOUTHERN BUOY              61 62  220/ 12/ 14 1024.8R         2/ 4
WAUKEGAN HARBOR            54     250/ 10/ 12   N/A
BURNHAM HARBOR             55     220/  7/  8   N/A
CALUMET HARBOR             53     210/  5/  7 1024.2R
MICHIGAN CITY 6N           56 63  180/ 10/ 14   N/A           1/ 2
ST. JOSEPH                 58 64  160/ 10/ 14   N/A           2/ 3
$$

ILZ025>027-034>036-040-047-049-050-058-095>099-231000-
WEST-CENTRAL ILLINOIS

CITY           SKY/WX    TMP DP  RH WIND       PRES   REMARKS
QUINCY         PTCLDY    53  43  68 SE6       30.26S
GALESBURG*     CLEAR    N/A N/A N/A CALM      30.28S
MACOMB*        CLEAR     42  42  99 E3        30.30S
JACKSONVILLE*  CLEAR     47  44  87 E6        30.28S
PITTSFIELD*    PTCLDY    47  45  91 CALM      30.28S
$$

ILZ028>032-037-038-041>044-048-051>054-059>061-231000-
CENTRAL ILLINOIS

CITY           SKY/WX    TMP DP  RH WIND       PRES   REMARKS
BLOOMINGTON    CLEAR     48  44  86 SE6       30.30S
DECATUR        CLEAR     45  42  89 CALM      30.29F
PEORIA         CLEAR     49  46  90 CALM      30.29R
LACON*         CLEAR     44  42  93 CALM      30.28S
LINCOLN*       CLEAR     46  42  88 CALM      30.28S
SPRINGFIELD    CLEAR     46  43  89 CALM      30.28S
TAYLORVILLE    CLEAR     45  43  93 CALM      30.28S
$$

ILZ033-039-045-046-055>057-062-063-231000-
EAST-CENTRAL ILLINOIS

CITY           SKY/WX    TMP DP  RH WIND       PRES   REMARKS
CHAMPAIGN        N/A    N/A N/A N/A MISG      30.30S
DANVILLE*      CLEAR     43  42  96 CALM      30.28R
RANTOUL*       CLEAR     48  44  84 CALM      30.31S
MATTOON        CLEAR     47  44  90 CALM      30.29R
PARIS*         CLEAR     43  42  99 CALM      30.31R
$$

ILZ079-100>102-231000-
SOUTHWEST ILLINOIS

CITY           SKY/WX    TMP DP  RH WIND       PRES   REMARKS
ALTON          CLEAR     47  46  96 CALM      30.27S
BELLEVILLE     CLEAR     48  46  93 CALM      30.27S FOG
CAHOKIA*       CLEAR     47  46  97 CALM      30.27S FOG
SPARTA*        CLEAR     46  45  96 CALM      30.28R
$$

ILZ064>066-069>071-074>076-080>082-084>086-088>090-092>094-231000-
SOUTH-CENTRAL ILLINOIS

CITY           SKY/WX    TMP DP  RH WIND       PRES   REMARKS
CARBONDALE     PTCLDY    44  43  96 NW3       30.27S FOG
CAIRO*         CLEAR     49  46  90 CALM      30.25F
EFFINGHAM*     CLEAR     44  42  91 CALM      30.29R
MARION         CLEAR     46  46 100 CALM      30.28S
MT. VERNON     CLEAR     43  37  81 CALM      30.28S
CENTRALIA*     CLEAR     44  42  93 CALM      30.28R
SALEM*         CLEAR     49  48  98 CALM      30.29R
METROPOLIS*    CLEAR     44  44 100 CALM      30.26R
$$

ILZ067-068-072-073-078-083-087-091-231000-
SOUTHEAST ILLINOIS

CITY           SKY/WX    TMP DP  RH WIND       PRES   REMARKS
LAWRENCEVILLE  CLEAR     47  46  97 N3        30.29R
FLORA*         CLEAR     45  45  99 CALM      30.29R
FAIRFIELD*     CLEAR    N/A N/A N/A CALM      30.28R
HARRISBURG*    CLEAR     45  45 100 CALM      30.29R FOG
ROBINSON*      FOG       44  44 100 CALM      30.30R VSB 1/2
CARMI*         CLEAR     46  46 100 CALM      30.27S
$$

ABBREVIATIONS USED IN REMARKS
   TC - TEMPERATURE IN CELSIUS
  WCI - WIND CHILL INDEX
   HX - HEAT INDEX
  VSB - VISIBILITY
$$



USA.gov is the U.S. government's official web portal to all federal, state and local government web resources and services.